Location: ???? ????
(41.4149°N, 22.8816°E)
Time: 14:15:58
(UTC+00:00)

Meteor 1-5 Rocket - Pass Details

Date: 14 July 2020
Orbit: 790 x 915 km, 81.2° (Epoch: 04 August)

Event Time Altitude Azimuth Distance (km) Brightness Sun altitude
Exits shadow 00:13:43 43° 164° (SSE) 1,196 4.6 -22.9°
Maximum altitude 00:15:34 69° 96° (E) 927 4.4 -22.7°
Drops below altitude 10° 00:21:22 10° 14° (NNE) 2,564 7.8 -22.3°
Sets 00:23:53 0° 13° (NNE) 3,523 8.8 -22.0°
